RS-38S
1 57189U 23091Z   26206.56867811  .00016733  00000-0  46171-3 0  9995
2 57189  97.5076 276.8500 0005194 293.3386  66.7312 15.37152872170584
SONATE-2
1 59112U 24043Q   26206.36493280  .00042417  00000-0  49370-3 0  9996
2 59112  97.5560 359.1960 0006183  71.7222 288.4707 15.61572504133845
GRBBeta
1 60237U 24128C   26206.64431851  .00003631  00000-0  25317-3 0  9997
2 60237  61.9902  81.3158 0035592 142.9914 217.3644 15.06868589112060
Curium One
1 60242U 24128H   26206.11159145  .00008741  00000-0  49751-3 0  9993
2 60242  61.9789  71.4042 0035151 138.7459 221.6303 15.12985749112198
ROBUSTA-3A
1 60243U 24128J   26206.62720512  .00008051  00000-0  47005-3 0  9996
2 60243  61.9866  72.2633 0036575 136.3250 224.0750 15.12114154112236
CatSat
1 60246U 24125J   26206.53644579  .00072439  00000-0  77190-3 0  9993
2 60246  97.2056  59.6663 0018535  46.1961 314.0827 15.63532151113375
HYPERVIEW-1G (RS66S)
1 61772U 24199AP  26206.39033472  .00289891  32849-4  96332-3 0  9998
2 61772  97.2759  88.3911 0008076 133.5140 226.6806 15.90230786140716
AO-123
1 61781U 24199AY  26206.60305585  .00007593  00000-0  21698-3 0  9999
2 61781  97.2955  74.9311 0014171 163.1031 197.0688 15.36180738139820
JINJUSat 1B
1 63210U 25052A   26206.43459368  .00016495  00000-0  49339-3 0  9990
2 63210  97.3958 103.2630 0001808 355.9615   4.1613 15.34631591 75961
NUSHSAT 1
1 63211U 25052B   26206.21789034  .00020246  00000-0  55386-3 0  9991
2 63211  97.3934 103.7498 0001819  16.8453 343.2851 15.37387925 75983
TEVEL2-4
1 63213U 25052D   26206.24596916  .00018457  00000-0  53026-3 0  9991
2 63213  97.3856 102.7253 0002395  34.3514 325.7885 15.35877829 75953
TEVEL2-5
1 63214U 25052E   26206.46645690  .00018969  00000-0  54811-3 0  9991
2 63214  97.3856 102.8833 0002463  34.7171 325.4233 15.35691666 75988
TEVEL2-6
1 63215U 25052F   26206.28418526  .00018170  00000-0  52586-3 0  9999
2 63215  97.3857 102.6853 0002499  37.3802 322.7615 15.35649939 75956
TEVEL2-1
1 63217U 25052H   26206.39222250  .00018169  00000-0  53552-3 0  9992
2 63217  97.3829 102.3709 0003196  38.4496 321.6974 15.35073268 75952
TEVEL2-3
1 63218U 25052J   26206.25499552  .00018228  00000-0  53622-3 0  9993
2 63218  97.3838 102.2607 0003043  42.9226 317.2254 15.35133035 75930
TEVEL2-2
1 63219U 25052K   26206.45746062  .00018208  00000-0  53642-3 0  9997
2 63219  97.3832 102.4392 0003215  39.0508 321.0967 15.35087050 75961
TEVEL2-9
1 63237U 25052AD  26206.22442618  .00016368  00000-0  51506-3 0  9994
2 63237  97.3898 101.4957 0006578  28.4807 331.6793 15.33002824 75854
TEVEL2-7
1 63238U 25052AE  26206.27298952  .00016056  00000-0  51042-3 0  9999
2 63238  97.3894 101.4439 0006671  28.0041 332.1558 15.32679957 75857
TEVEL2-8
1 63239U 25052AF  26206.21631719  .00016219  00000-0  51581-3 0  9995
2 63239  97.3894 101.3630 0006724  28.7989 331.3623 15.32664639 75841
SPIRONE
1 66657U 25274H   26206.30691020  .00001996  00000-0  19399-3 0  9996
2 66657  97.7469 135.0558 0010435 244.8148 115.1990 14.93686132 35912
K-HERO
1 66660U 25274L   26206.30101256  .00001987  00000-0  19113-3 0  9991
2 66660  97.7479 135.2389 0012256 250.0458 109.9442 14.94092089 35924
SNUGLITE-III DURI
1 66661U 25274M   26206.48887950  .00001981  00000-0  19042-3 0  9998
2 66661  97.7475 135.4451 0012930 250.3497 109.6328 14.94116580 35954
SAKHACUBE-CHOLBON
1 67290U 25313AU  26206.14664703  .00011512  00000-0  45646-3 0  9993
2 67290  97.3918 280.7195 0008459 211.5984 148.4748 15.25511378 31762
RS95S (QMR-KWT-2)
1 67291U 25313AV  26206.48959521  .00014552  00000-0  54746-3 0  9994
2 67291  97.3918 281.3212 0008331 206.6806 153.4006 15.27204540 31830
Ten-Koh2
1 68261U 25241B   26206.24345072  .00006765  00000-0  28665-3 0  9994
2 68261  51.6557 138.4566 0004802 264.3536  95.6894 15.24269104 20715
JACK-002
1 68417U 26067B   26206.15589957  .00007534  00000-0  35470-3 0  9993
2 68417  97.4583 164.2934 0003688 117.1642 242.9969 15.19814951 17711
DISCO 2
1 68431U 26067R   26205.45940021  .00009063  00000-0  42890-3 0  9997
2 68431  97.4614 163.5950 0001727 155.3475 204.7843 15.19582452 17605
HADES-SA (SpinnyONE)
1 68446U 26067AG  26206.34595336  .00018093  00000-0  83480-3 0  9990
2 68446  97.4410 164.1081 0004520 323.3279  36.7646 15.20280123 17729
PARUS-6U1
1 68456U 26067AS  26205.83500184  .00006695  00000-0  33365-3 0  9993
2 68456  97.4568 163.6337 0003762 305.8102  54.2782 15.17876196 17643
SAL-E
1 68458U 26067AU  26206.61362110  .00007737  00000-0  38072-3 0  9995
2 68458  97.4494 164.3174 0004004 317.1155  42.9766 15.18266258 17766
FSI-SAT 2
1 68792U 26088A   26206.33282305  .00003888  00000-0  26254-3 0  9997
2 68792  97.5111 354.6513 0013581 343.9713  16.1083 15.07104237 14030
OrigamiSat 2
1 68795U 26088D   26206.35368352  .00011672  00000-0  72992-3 0  9999
2 68795  97.5104 354.9324 0013571 309.4831  50.5197 15.09507372 14054
ARICA 2
1 68796U 26088E   26206.30110131  .00004815  00000-0  31045-3 0  9990
2 68796  97.5098 354.8345 0014399 311.0122  48.9861 15.08689997 14041
WASEDA-SAT-ZERO-II
1 68797U 26088F   26206.35624431  .00006299  00000-0  40128-3 0  9999
2 68797  97.5097 354.9115 0014070 310.2858  49.7140 15.09018473 14056
MANGARO-II-Piscus
1 68798U 26088G   26206.47753518  .00003684  00000-0  23612-3 0  9996
2 68798  97.5112 355.0685 0017608 313.1308  46.8448 15.09024101 14077
IO-86
1 40931U          25360.30710720  .00000000  00000-0  12800-3 0    00
2 40931   6.0006 332.5373 0012733 338.8432   8.1437 14.79075515    01
LILIUM-4                
1 71922C 26067AC  26089.50133053 -.00014632  00000+0 -74472-3 0    04
2 71922  97.4497  49.1617 0004341   5.9603 355.7042 15.16896692    16
